Location: Montreal
(45.5000°N, 73.5833°W)
Time: 14:52:02
(UTC-04:00)

Vanguard 2 Rocket - All Passes

Search period start: 23 October 2017 00:00
Search period end: 02 November 2017 00:00
Orbit: 555 x 3327 km, 32.9° (Epoch: 22 October)

Date Brightness Start Highest point End Pass type
(mag) Time Alt. Az. Time Alt. Az. Time Alt. Az.
23 Oct - 13:06:04 10° SW 13:10:38 27° SSE 13:17:24 10° ESE daylight
23 Oct - 15:17:12 10° WSW 15:23:30 32° S 15:33:33 10° SE daylight
23 Oct - 17:30:18 10° WSW 17:37:32 22° SSW 17:47:42 10° SSE daylight
24 Oct - 12:08:12 10° SSW 12:11:44 20° SSE 12:16:26 10° ESE daylight
24 Oct - 14:18:43 10° WSW 14:24:04 31° S 14:32:27 10° ESE daylight
24 Oct - 16:31:00 10° WSW 16:37:35 25° SSW 16:47:20 10° SSE daylight
24 Oct - 18:48:39 10° SW 18:51:58 11° SSW 18:55:40 10° SSW visible
25 Oct - 11:10:57 10° S 11:12:59 13° SSE 11:15:19 10° SE daylight
25 Oct - 13:20:25 10° SW 13:24:54 27° S 13:31:33 10° ESE daylight
25 Oct - 15:32:05 10° WSW 15:37:55 26° S 15:46:42 10° SE daylight
25 Oct - 17:46:49 10° SW 17:51:54 14° SSW 17:58:11 10° S daylight
26 Oct - 12:22:17 10° SW 12:25:57 22° SSE 12:30:53 10° ESE daylight
26 Oct - 14:33:26 10° WSW 14:38:28 26° S 14:46:01 10° SE daylight
26 Oct - 16:46:45 10° WSW 16:52:01 17° SSW 16:58:59 10° SSE daylight
27 Oct - 11:24:24 10° SSW 11:27:08 16° SSE 11:30:22 10° ESE daylight
27 Oct - 13:34:58 10° SW 13:39:16 25° S 13:45:26 10° SE daylight
27 Oct - 15:47:24 10° WSW 15:52:21 19° SSW 15:59:08 10° SSE daylight
28 Oct - 10:27:19 10° S 10:28:22 11° SSE 10:29:28 10° SE daylight
28 Oct - 12:36:39 10° SW 12:40:15 22° S 12:45:04 10° SE daylight
28 Oct - 14:48:29 10° SW 14:52:54 20° S 14:59:03 10° SSE daylight
29 Oct - 11:38:28 10° SW 11:41:23 18° S 11:44:54 10° SE daylight
29 Oct - 13:49:49 10° SW 13:53:41 20° S 13:58:55 10° SE daylight
29 Oct - 16:04:11 10° SW 16:06:49 12° SSW 16:09:52 10° S daylight
30 Oct - 10:40:26 10° SSW 10:42:34 14° SSE 10:44:53 10° SE daylight
30 Oct - 12:51:19 10° SW 12:54:37 19° S 12:58:54 10° SE daylight
30 Oct - 15:04:24 10° SW 15:07:23 13° SSW 15:11:00 10° S daylight
31 Oct - 09:43:02 10° S 09:43:45 10° SSE 09:44:27 10° SSE daylight
31 Oct - 11:52:53 10° SW 11:55:42 17° S 11:59:05 10° SE daylight
31 Oct - 14:05:16 10° SW 14:08:08 14° S 14:11:39 10° SSE daylight
01 Nov - 10:54:28 10° SSW 10:56:52 15° S 10:59:28 10° SE daylight
01 Nov - 13:06:24 10° SW 13:09:02 15° S 13:12:12 10° SSE daylight
